Tracking 29892 objects as of 21-Nov-2024
HD Live streaming from Space Station
objects crossing your sky now

STARLINK-4062

Track STARLINK-4062 now!
10-day predictions
STARLINK-4062 is classified as:


NORAD ID: 53261
Int'l Code: 2022-086V
Perigee: 546.0 km
Apogee: 547.8 km
Inclination: 53.2 °
Period: 95.4 minutes
Semi major axis: 6917 km
RCS: Unknown
Launch date: July 24, 2022
Source: United States (US)
Launch site: AIR FORCE EASTERN TEST RANGE (AFETR)
Your satellite tracking list
Your tracking list is empty




NASA's NSSDC Master Catalog

Two Line Element Set (TLE):
1 53261U 22086V   24325.52271766  .00000407  00000-0  43689-4 0  9992
2 53261  53.2153 162.7402 0001300  93.5732 266.5409 15.08835429129305
Source of the keplerian elements: AFSPC